Bowling Green, KY

12:46 PM CST on February 23, 2017 (GMT -0600)
Bowling Green-Warren County Regional

Weather History for KBWG - June, 2013

Change the Weather History Date:

Thursday, June 13, 2013

  Actual Average Record
Temperature  
Mean Temperature 78 °F 75 °F  
Max Temperature 88 °F 86 °F 100 °F (1894)
Min Temperature 68 °F 63 °F 39 °F (1903)
Degree Days  
Heating Degree Days 0 0  
Month to date heating degree days 0 3  
Since 1 June heating degree days 0 3  
Since 1 July heating degree days 3875 4046  
Cooling Degree Days 13 10  
Month to date cooling degree days 116 107  
Year to date cooling degree days 329 260  
Since 1 June cooling degree days 116 107  
Growing Degree Days 30 (Base 50)    
Moisture  
Dew Point 67 °F    
Average Humidity 63    
Maximum Humidity 74    
Minimum Humidity 51    
Precipitation  
Precipitation 0.00 in 0.14 in 2.65 in (1969)
Month to date precipitation 2.03 1.92  
Year to date precipitation 26.56 23.85  
Snow  
Snow 0.00 in 0.00 in 0.00 in ()
Month to date snowfall 0.0 0.0  
Since 1 June snowfall 0.0 0.0  
Since 1 July snowfall 3.8 9.1  
Snow Depth 0.00 in    
Sea Level Pressure  
Sea Level Pressure 29.85 in    
Wind  
Wind Speed 10 mph (WNW)    
Max Wind Speed 21 mph    
Max Gust Speed 30 mph    
Visibility 10 miles    
Events      
T = Trace of Precipitation, MM = Missing Value Source: NWS Daily Summary

Daily Weather History Graph

Daily Weather History Graph

Search for Another Location

Airport or City:

Trip Planner

Search our weather history database for the weather conditions in past years. The results will help you decide how hot, cold, wet, or windy it might be!

Date:

Astronomy

Jun. 13, 2013 Rise Set
Actual Time 5:25 AM CDT 8:06 PM CDT
Civil Twilight 4:54 AM CDT 8:36 PM CDT
Nautical Twilight 4:16 AM CDT 9:15 PM CDT
Astronomical Twilight 3:33 AM CDT 9:58 PM CDT
Moon 9:56 AM CDT (6/13) 11:18 PM CDT (6/13)
Length of Visible Light 15h 42m
Length of Day
14h 40m
Waxing Crescent, 22% of the Moon is Illuminated
Jun 13
Waxing Crescent
Jun 16
First Quarter
Jun 23
Full
Jun 29
Last Quarter
Jul 8
New

Hourly Weather History & Observations

Time (CDT) Temp. Heat Index Dew Point Humidity Pressure Visibility Wind Dir Wind Speed Gust Speed Precip Events Conditions
12:53 AM 82.9 °F 88.0 °F 72.0 °F 69% 29.86 in 10.0 mi SW 11.5 mph - N/A   Clear
1:53 AM 82.0 °F 86.3 °F 71.1 °F 69% 29.85 in 10.0 mi SW 13.8 mph - N/A   Clear
2:53 AM 81.0 °F 84.9 °F 71.1 °F 72% 29.83 in 10.0 mi SW 12.7 mph - N/A   Clear
3:53 AM 81.0 °F 85.2 °F 72.0 °F 74% 29.81 in 10.0 mi SW 16.1 mph 21.9 mph N/A   Clear
4:53 AM 80.1 °F 83.6 °F 71.1 °F 74% 29.79 in 10.0 mi SW 15.0 mph 21.9 mph N/A   Clear
5:53 AM 80.1 °F 83.6 °F 71.1 °F 74% 29.80 in 10.0 mi SW 12.7 mph 21.9 mph N/A   Partly Cloudy
6:53 AM 81.0 °F 85.2 °F 72.0 °F 74% 29.80 in 10.0 mi WSW 10.4 mph - N/A   Clear
7:53 AM 82.9 °F 88.0 °F 72.0 °F 69% 29.78 in 10.0 mi WSW 10.4 mph - N/A   Partly Cloudy
8:32 AM 82.4 °F 87.2 °F 71.6 °F 70% 29.81 in 10.0 mi WSW 15.0 mph 25.3 mph N/A   Overcast
8:53 AM 82.9 °F 88.0 °F 72.0 °F 69% 29.78 in 10.0 mi WSW 13.8 mph 20.7 mph N/A   Overcast
9:12 AM 84.2 °F 89.6 °F 71.6 °F 66% 29.80 in 10.0 mi West 12.7 mph 23.0 mph N/A   Mostly Cloudy
9:53 AM 86.0 °F 92.2 °F 72.0 °F 63% 29.78 in 10.0 mi WSW 15.0 mph 20.7 mph N/A   Mostly Cloudy
10:53 AM 87.1 °F 92.0 °F 70.0 °F 57% 29.79 in 10.0 mi WNW 17.3 mph - N/A   Scattered Clouds
11:53 AM 84.9 °F 86.6 °F 64.9 °F 51% 29.82 in 10.0 mi NW 18.4 mph 28.8 mph N/A   Partly Cloudy
12:53 PM 84.0 °F 85.4 °F 64.0 °F 51% 29.84 in 10.0 mi NNW 13.8 mph 25.3 mph N/A   Scattered Clouds
1:53 PM 82.0 °F 83.8 °F 64.9 °F 56% 29.85 in 10.0 mi NW 10.4 mph 24.2 mph N/A   Overcast
2:53 PM 82.9 °F 84.4 °F 64.0 °F 53% 29.86 in 10.0 mi NW 12.7 mph 19.6 mph N/A   Clear
3:53 PM 80.1 °F 81.9 °F 64.9 °F 60% 29.87 in 10.0 mi NW 9.2 mph 19.6 mph N/A   Overcast
4:53 PM 79.0 °F - 66.0 °F 64% 29.88 in 10.0 mi WNW 6.9 mph - N/A   Overcast
5:53 PM 81.0 °F 83.0 °F 66.0 °F 60% 29.86 in 10.0 mi WNW 11.5 mph 17.3 mph N/A   Overcast
6:53 PM 81.0 °F 82.5 °F 64.0 °F 56% 29.87 in 10.0 mi NNW 5.8 mph - N/A   Mostly Cloudy
7:53 PM 78.1 °F - 61.0 °F 56% 29.89 in 10.0 mi NNW 8.1 mph - N/A   Partly Cloudy
8:53 PM 75.0 °F - 60.1 °F 60% 29.92 in 10.0 mi Calm Calm - N/A   Clear
9:53 PM 73.9 °F - 60.1 °F 62% 29.94 in 10.0 mi NNW 3.5 mph - N/A   Scattered Clouds
10:53 PM 72.0 °F - 59.0 °F 64% 29.96 in 10.0 mi North 3.5 mph - N/A   Clear
11:53 PM 70.0 °F - 57.0 °F 63% 29.96 in 10.0 mi NNE 3.5 mph - N/A   Clear